Regional Weather Roundup
Issued by NWS State College, PA

Home | Current Version | Previous Version | Graphics & Text | Print | Product List | Glossary On
Versions: 1 2 3 4 5 6 7 8 9 10 11 12 13 14 15 16 17 18 19 20 21 22 23 24 25 26 27 28 29 30 31 32 33 34 35 36 37 38 39 40 41 42 43 44 45 46 47 48 49 50
000
ASUS41 KCTP 261603
RWRCTP

REGIONAL WEATHER ROUNDUP
NATIONAL WEATHER SERVICE STATE COLLEGE PA
1200 PM EDT MON SEP 26 2016

Note: "fair" indicates few or no clouds below 12,000 feet with no
significant weather and/or obstructions to visibility.

* = STATION THAT DOES NOT REPORT PRECIPITATION /E.G. RAIN...SNOW...ETC/
    THUNDER OR FOG.

PAZ002>004-007>009-013>016-020>023-029>032-261700-
WESTERN PENNSYLVANIA

CITY           SKY/WX    TMP DP  RH WIND       PRES   REMARKS
ERIE           RAIN      60  57  89 S12       29.93F FOG
MEADVILLE      RAIN      60  56  86 SW14G23   29.98R FOG
FRANKLIN*        N/A     70  55  60 S9        29.96F
NEW CASTLE     CLOUDY    71  59  65 W8        29.98R
BEAVER COUNTY  PTSUNNY   72  59  64 S5        29.96F
BUTLER*        SUNNY     73  57  56 S8        29.99F
PITTSBURGH INT PTSUNNY   77  62  59 S9        29.95F
PITTSBURGH     MOSUNNY   76  60  57 S10       29.97F
INDIANA*       PTSUNNY   72  61  68 VRB5G12   30.02F
LATROBE        PTSUNNY   77  63  61 SW9       29.99F
WASHINGTON CO* SUNNY     79  64  61 SW5       29.98F
$$

PAZ004>006-010>012-017>019-024>028-033>037-041-042-045-046-049>053-261700-
CENTRAL PENNSYLVANIA

CITY           SKY/WX    TMP DP  RH WIND       PRES   REMARKS
BRADFORD       CLOUDY    64  54  69 SE12G21   30.00F
DUBOIS         PTSUNNY   67  54  63 S10       30.00F
CLEARFIELD     PTSUNNY   67  57  70 VRB6      30.04F
JOHNSTOWN      MOSUNNY   66  60  81 S10       30.05F
ALTOONA        CLOUDY    62  57  83 S10       30.07F
STATE COLLEGE  CLOUDY    63  54  72 SW8       30.07F
WILLIAMSPORT   CLOUDY    63  47  55 VRB5      30.08F
SELINSGROVE    CLOUDY    68  56  65 S12G21    30.09F
FT INDIANTOWN  CLOUDY    60  49  66 VRB5      30.12F
CAPITAL CITY   CLOUDY    66  55  67 E7        30.10F
HARRISBURG     CLOUDY    66  58  75 SE6       30.10F
YORK           CLOUDY    66  59  78 VRB5      30.11F
$$

PAZ038>040-043-044-047-048-054-055-060>062-067>071-261700-
EASTERN PENNSYLVANIA

CITY           SKY/WX    TMP DP  RH WIND       PRES   REMARKS
SCRANTON       CLOUDY    66  46  48 S12G23    30.11F
MOUNT POCONO   PTSUNNY   59  43  55 S14       30.15F
ALLENTOWN      CLOUDY    68  48  48 S9        30.14F
QUAKERTOWN*    CLOUDY    66  52  59 SW8       30.16S
READING        CLOUDY    63  49  60 S6        30.13F
LANCASTER      CLOUDY    66  56  70 S10       30.13F
COATESVILLE      N/A    N/A N/A N/A MISG        N/A
POTTSTOWN      CLOUDY    69  52  54 VRB7      30.16F
BLUE BELL      PTSUNNY   66  54  63 S7        30.15F
DOYLESTOWN     MOSUNNY   69  54  58 S9G16     30.14F
WILLOW GROVE   NOT AVBL
NORTH PHILA    MOSUNNY   70  53  54 S10       30.17F
PHILADELPHIA   PTSUNNY   71  52  50 SE12      30.15F
$$




USA.gov is the U.S. government's official web portal to all federal, state and local government web resources and services.